Lapse_Rate
6.6 6.5 6.4 6.3 6.1 5.9 5.7 5.6 5.6 5.6 5.8 5.9 5.9 5.9 5.9 5.6 5.6 5.7 5.9 5.8 5.7 5.7
6.9 6.9 6.5 6.1 6.2 5.9 6.1 5.8 5.8 5.5 5.7 5.9 5.8 6.0 6.1 5.8 5.9 6.0 5.9 5.8 5.7 5.6
6.5 6.6 6.6 6.3 6.3 6.2 6.2 6.1 5.7 5.6 6.0 5.8 5.5 6.2 5.3 6.1 6.1 5.9 5.9 5.9 5.8 5.7
6.5 6.5 6.3 6.1 6.0 6.0 6.0 5.7 5.8 5.9 5.9 6.2 6.1 5.8 5.8 5.8 6.0 6.0 5.9 5.9 5.7 5.6
6.4 6.2 6.1 5.8 5.5 5.6 5.6 5.6 5.6 5.5 5.5 5.7 5.4 5.4 5.3 5.5 5.7 5.8 5.9 5.9 6.0 5.7
6.1 6.0 6.1 5.9 5.9 6.0 5.7 5.5 5.5 5.4 5.4 5.1 5.1 5.2 5.4 5.5 5.5 5.5 5.6 5.5 5.4 5.5
5.4 5.5 5.6 5.6 5.3 5.1 5.2 5.3 5.6 5.5 5.5 5.2 5.0 5.1 4.9 5.1 5.2 5.1 5.0 5.2 5.3 5.5
4.8 4.9 5.2 5.1 5.0 4.8 4.6 4.7 4.9 5.0 4.7 4.6 4.5 4.7 4.5 5.3 5.3 5.2 5.3 5.0 5.2 5.1
4.0 4.3 4.1 4.7 4.7 4.8 4.6 5.1 4.6 4.9 4.7 5.0 5.1 4.9 5.2 5.0 4.9 5.1 5.2 5.2 5.4 5.5
4.9 5.1 5.1 5.1 5.0 5.3 5.3 5.4 5.4 5.3 5.6 5.4 5.4 5.4 5.1 4.9 5.3 5.2 5.4 5.5 5.5 5.5
4.9 5.0 5.1 5.2 5.0 5.1 5.2 5.3 5.1 5.2 5.9 5.9 5.8 5.6 5.2 5.2 5.4 5.3 5.0 4.7 4.8 4.8
4.8 4.8 4.7 4.7 4.8 5.0 5.0 5.0 5.0 4.9 4.9 4.8 4.7 4.8 4.6 4.6 4.7 4.7 4.6 4.4 4.2 4.2
4.6 4.6 4.7 4.8 4.8 4.7 4.6 4.5 4.5 4.4 4.3 4.3 4.2 4.2 4.1 4.0 4.0 4.0 3.7 3.6 3.5 3.6
4.6 4.5 4.4 4.4 4.4 4.4 4.3 4.2 4.1 4.1 3.9 3.8 3.9 3.9 3.9 3.7 3.6 3.7 3.5 3.5 3.5 3.2
Wind_Speed
7 4 4 5 4 4 6 6 7 7 8 8 8 6 8 7 6 7 7 9 6 6
9 10 8 10 9 7 8 6 6 3 4 7 7 6 3 3 4 5 6 8 9 9
11 11 10 10 9 9 8 10 9 9 9 8 9 9 4 5 5 5 5 5 6 6
11 11 11 10 9 10 11 11 12 11 11 12 11 11 10 8 8 8 7 7 7 8
11 11 12 10 10 10 12 11 11 11 11 11 11 11 12 10 9 8 8 7 7 9
11 10 10 9 10 11 9 10 11 11 10 11 10 11 10 8 7 5 3 7 7 7
10 10 10 8 10 9 9 10 10 10 9 10 10 9 9 10 9 9 10 9 6 8
8 8 9 11 11 10 6 7 8 10 9 9 9 7 10 8 5 5 4 4 7 6
7 9 9 9 9 8 9 8 8 8 7 7 7 13 11 5 1 2 3 4 5 5
4 4 3 1 1 2 3 4 4 3 4 5 5 10 11 9 3 3 4 4 4 5
5 4 3 4 5 5 4 5 4 5 5 5 6 12 12 11 5 4 4 4 4 4
5 5 5 5 5 4 4 4 4 3 4 4 3 10 12 10 5 5 6 5 4 3
3 4 4 4 4 3 3 3 3 4 2 3 3 10 12 10 5 5 5 6 5 11
4 3 4 4 3 3 3 4 4 4 3 1 3 5 8 9 6 4 3 3 4 4
Wind_Direction
226 222 244 224 233 249 242 222 216 211 213 225 236 216 216 201 228 212 224 227 226 240
46 41 27 36 29 20 15 5 5 25 295 232 233 263 249 207 216 216 224 237 240 245
51 52 50 50 37 33 28 31 28 33 40 28 50 43 59 59 33 55 44 27 2 292
53 55 56 54 47 44 43 38 44 45 41 44 39 35 40 41 52 53 34 29 36 22
47 51 56 52 46 52 58 49 48 49 52 50 44 45 46 35 23 47 53 10 37 38
41 48 50 47 44 43 42 55 52 53 50 52 37 37 35 29 29 34 47 51 14 36
40 36 33 36 56 47 35 40 45 46 40 54 52 33 37 27 13 7 26 35 22 38
51 42 44 36 33 29 46 55 46 49 34 42 44 21 27 18 19 23 7 14 24 20
37 32 35 29 26 20 20 29 44 38 42 45 38 24 28 8 343 2 32 28 23 2
39 71 52 99 122 72 47 8 52 59 46 82 58 32 24 18 11 48 30 32 19 37
17 33 59 57 40 25 16 29 23 35 25 25 50 28 24 20 355 2 11 12 0 48
5 10 32 33 37 19 21 27 13 18 31 28 18 31 24 16 353 18 11 350 349 71
6 19 39 25 31 24 16 359 349 344 334 358 28 26 22 17 356 10 353 337 349 354
2 23 40 10 10 360 349 339 322 318 316 5 67 25 18 6 4 347 331 328 339 352